Location: Osnabr�ck
(52.2670°N, 8.0500°E)
Time: 09:54:02
(UTC+02:00)

Envisat - Visible Passes

Search period start: 05 June 2023 00:00
Search period end: 15 June 2023 00:00
Orbit: 763 x 765 km, 98.2° (Epoch: 04 June)

Date Brightness Start Highest point End Pass type
(mag) Time Alt. Az. Time Alt. Az. Time Alt. Az.
06 Jun 5.4 04:16:10 10° NE 04:19:57 21° E 04:23:43 10° SE visible
07 Jun 6.0 03:41:53 10° ENE 03:42:15 10° E 03:42:36 10° E visible
09 Jun 5.5 04:04:09 10° NE 04:07:22 17° E 04:10:33 10° SE visible
12 Jun 5.6 03:52:21 10° NE 03:54:45 13° E 03:57:07 10° ESE visible
14 Jun 5.3 04:15:59 10° NE 04:19:48 21° E 04:23:35 10° SE visible
